Wind_Speed
12 10 9 9 9 8 5 3 2 4 8 10 11 14 18 20 22 23 25 28 30 31 29 25 24 26 29 31 35 40 46 49 51 48 46 50 43 37 35 35 35 36 35
13 12 10 9 8 8 6 5 2 3 6 8 11 15 16 17 21 23 25 26 29 31 31 27 26 28 31 33 36 41 46 49 50 45 48 49 40 36 34 35 37 39 38
14 13 10 9 8 8 6 5 3 2 5 10 13 15 17 18 21 23 26 28 31 34 34 33 31 30 33 36 39 42 46 49 49 45 47 46 41 36 35 36 39 41 38
15 14 12 10 10 7 5 4 3 2 4 8 12 14 17 20 23 26 29 32 36 37 37 38 37 35 36 37 39 42 45 48 50 47 47 46 43 39 37 37 41 43 37
16 16 14 12 11 8 6 6 5 2 11 4 9 16 21 24 26 29 33 37 38 40 40 41 43 41 39 40 41 43 45 47 50 51 50 45 42 41 39 39 40 40 39
17 17 15 12 11 10 7 7 5 4 5 8 12 16 20 24 26 30 34 36 38 40 41 43 44 44 42 41 43 43 44 48 50 53 52 45 43 43 40 40 40 40 39
20 18 14 12 13 11 9 6 6 3 2 7 12 16 20 24 28 30 33 34 36 38 40 42 43 46 46 44 45 46 46 48 51 54 51 48 47 44 39 39 40 42 41
20 17 15 13 13 13 7 4 6 5 5 8 11 15 20 25 28 30 31 32 33 36 38 40 42 45 47 48 48 47 49 50 51 55 54 50 49 47 41 41 42 42 43
18 16 14 13 13 12 3 2 6 5 2 4 8 14 19 24 28 29 32 34 35 36 36 39 40 43 46 49 50 51 51 52 54 55 57 54 52 51 46 40 41 41 41
18 16 15 13 15 8 4 3 6 5 3 4 6 12 17 22 25 28 31 35 36 38 39 39 38 40 44 48 52 53 54 56 58 58 59 58 56 53 48 44 42 43 43
18 16 16 18 15 9 5 4 8 9 8 8 8 17 15 21 25 29 32 38 38 37 39 40 39 39 43 48 52 55 56 57 60 61 61 62 57 55 51 48 46 46 46
15 15 20 20 16 11 9 9 12 14 13 12 10 19 30 22 20 27 31 38 42 42 41 39 39 39 43 47 53 56 57 59 62 61 61 62 59 59 56 51 49 49 51
18 18 24 26 23 17 13 14 15 16 15 15 14 21 31 32 41 24 27 34 39 45 47 38 38 40 43 47 53 56 58 59 61 61 63 64 61 58 56 52 51 51 53
23 22 21 25 27 25 21 20 18 18 18 18 16 23 32 38 43 44 27 34 37 42 46 37 38 39 43 47 53 56 59 60 60 61 63 63 63 59 61 54 51 51 54
24 26 26 24 24 25 26 24 17 21 22 23 21 28 33 36 37 44 42 31 41 45 45 37 36 38 42 46 52 54 57 57 58 59 61 63 62 59 63 53 52 54 57
28 26 28 29 31 31 29 27 22 23 26 29 24 30 35 32 40 40 43 29 38 47 46 39 37 38 42 47 51 52 52 50 53 58 62 63 60 66 65 52 50 54 57
34 32 32 31 33 35 36 35 34 30 31 34 36 32 35 38 50 39 51 29 32 44 46 39 37 39 43 46 51 51 49 51 55 61 67 64 64 64 61 52 49 54 59
38 36 37 37 40 39 41 37 38 38 36 45 33 41 41 41 37 37 43 27 32 41 43 40 39 39 43 47 50 50 51 51 56 64 67 72 66 68 66 52 51 55 59
47 43 42 43 41 42 43 41 43 43 41 49 43 43 49 55 50 47 38 28 35 39 43 40 39 38 43 46 50 49 51 55 59 66 69 68 72 71 66 53 51 55 60
49 49 47 48 48 50 48 47 46 44 46 46 49 50 53 54 57 40 24 32 35 38 43 42 41 41 43 46 49 49 52 55 60 67 70 72 75 71 64 56 51 55 60
54 56 57 56 55 53 52 53 52 49 49 51 56 54 54 60 45 40 29 35 40 39 43 44 46 44 43 45 50 49 50 54 60 64 69 70 72 66 62 53 50 55 60
51 50 48 49 49 49 49 47 48 53 51 52 56 54 54 57 54 39 47 34 42 44 42 48 52 50 44 45 47 48 50 54 59 64 69 71 71 69 66 53 48 54 61
47 46 46 47 48 48 47 45 45 48 51 53 54 55 46 56 54 40 41 38 47 45 46 56 55 52 47 46 45 44 50 55 58 64 67 66 67 63 66 56 48 53 58
53 51 50 50 50 50 47 45 46 45 49 52 53 54 52 46 42 51 38 45 48 46 47 53 54 54 46 43 42 43 50 55 58 64 64 65 64 63 62 50 46 53 58
53 53 53 51 50 51 50 48 47 44 43 40 42 50 54 55 55 49 45 47 49 49 54 49 51 50 46 44 41 45 49 53 59 63 63 61 58 61 61 45 45 51 58
58 56 56 54 53 52 52 52 49 48 47 47 49 53 57 58 56 56 48 50 51 57 51 42 46 44 42 41 44 48 49 52 56 59 60 56 55 59 61 44 43 50 55
Wind_Direction
186 184 183 187 184 186 194 207 189 70 44 31 21 19 9 4 359 358 1 2 360 360 355 348 347 347 346 348 345 346 346 345 345 342 341 342 343 341 340 337 332 329 324
197 197 194 198 196 199 206 229 209 60 40 21 6 360 1 354 356 357 357 360 0 2 360 354 350 350 350 349 347 346 347 347 346 343 342 344 342 341 339 336 332 329 329
203 204 199 204 207 208 211 228 208 72 17 7 346 344 346 345 346 353 356 356 356 3 2 0 355 351 353 349 348 345 346 347 347 343 343 344 341 339 336 336 335 331 331
208 210 209 210 213 214 188 219 181 79 7 10 356 338 329 337 345 352 356 355 355 356 359 359 359 356 355 352 349 346 346 347 348 344 342 344 342 337 335 336 336 334 332
216 218 221 223 222 210 172 153 128 87 35 284 338 348 348 346 351 353 354 351 348 348 353 356 359 358 354 352 350 347 347 348 348 346 344 343 342 336 334 335 335 332 332
218 220 229 231 221 207 177 156 120 86 29 358 4 351 341 339 348 351 352 348 344 341 347 352 353 355 354 352 350 347 348 347 347 346 346 343 339 338 334 334 332 335 330
219 223 229 229 216 207 184 135 117 108 63 14 357 340 342 345 349 348 348 345 340 337 340 345 350 350 353 352 351 350 349 346 348 347 348 346 342 339 333 330 333 334 330
222 223 228 230 217 207 185 118 102 101 41 20 12 360 353 348 349 344 342 342 337 332 334 340 344 346 348 349 350 350 350 349 348 348 347 348 344 338 335 335 334 330 328
223 225 228 213 216 205 214 151 129 131 99 23 358 346 347 344 349 342 342 341 341 332 329 335 339 341 344 347 347 349 348 349 348 347 346 345 345 341 336 333 332 332 328
224 224 216 203 196 221 220 181 199 196 222 295 329 333 337 330 338 342 338 337 331 333 325 328 333 337 339 342 344 344 344 346 346 344 343 343 343 344 338 333 332 331 330
214 216 204 195 202 214 219 251 239 238 261 278 309 301 305 317 329 341 340 348 336 330 323 319 327 331 334 338 339 341 341 343 344 342 342 341 343 343 340 334 332 331 332
201 204 199 206 214 225 226 245 248 254 272 288 301 293 302 311 328 332 342 346 343 338 326 315 319 325 329 332 335 337 339 340 341 342 341 340 342 343 341 335 333 332 333
216 218 216 215 220 232 237 244 245 257 279 293 287 288 291 305 304 313 330 335 337 339 333 317 314 319 324 328 331 334 336 338 340 339 338 340 342 344 341 336 334 334 333
220 228 232 231 233 241 248 253 254 265 284 288 291 283 286 287 316 322 325 324 329 331 336 321 317 317 321 325 328 333 335 337 337 339 339 340 341 342 342 337 334 335 335
231 232 239 242 248 251 253 252 257 261 278 278 280 276 293 313 306 301 306 323 323 331 335 322 318 317 318 322 325 332 333 336 338 341 340 340 342 345 344 337 336 338 335
241 244 245 247 247 250 256 258 262 261 267 267 287 282 287 299 294 301 297 319 324 331 335 323 319 315 316 318 325 328 333 342 345 347 346 344 344 342 341 339 337 336 334
246 249 253 257 260 258 259 261 261 264 270 275 281 283 285 280 294 296 296 318 323 326 330 323 317 315 315 319 321 324 329 332 334 342 351 347 345 346 342 338 337 336 334
254 254 255 258 260 264 265 263 260 265 269 264 282 279 289 274 286 286 302 317 320 323 328 327 322 319 317 320 322 321 324 326 333 337 341 344 349 348 344 339 338 336 336
254 255 260 256 255 261 262 267 266 264 270 269 272 273 271 280 279 289 319 311 316 323 325 327 323 318 319 321 319 317 319 321 328 330 337 338 344 349 344 339 336 339 337
258 258 259 262 261 259 260 261 264 263 263 263 273 270 274 273 282 297 309 301 310 316 322 322 326 316 314 316 317 315 318 320 325 328 331 336 339 345 344 339 338 339 337
256 256 260 259 259 263 263 262 260 258 260 259 264 268 272 278 289 297 288 292 299 307 315 319 320 320 311 313 316 314 317 319 321 325 331 336 342 347 343 336 342 341 338
252 256 259 259 260 262 262 261 258 254 257 260 262 269 274 280 287 276 279 288 291 299 309 315 313 318 309 307 312 313 317 319 321 325 329 335 341 346 344 338 342 342 341
250 252 256 260 262 262 261 262 261 258 254 258 262 268 262 278 280 287 284 282 285 295 303 306 309 312 303 305 308 314 314 318 322 327 332 335 343 346 346 339 344 343 342
249 251 254 256 258 258 259 264 264 259 257 258 261 267 271 271 273 277 273 273 282 290 294 302 306 310 301 302 304 311 312 316 320 323 329 334 345 346 345 338 345 343 342
244 248 250 251 250 254 258 260 262 259 257 256 258 256 260 268 270 265 263 272 279 287 289 300 303 307 302 298 306 310 312 313 316 322 328 336 344 347 345 339 345 344 343
246 247 249 252 254 254 256 257 257 257 254 252 252 251 248 249 256 262 263 271 279 282 291 297 302 308 304 302 303 306 309 312 315 319 326 337 343 348 345 339 347 344 344
Height
5939 5941 5943 5945 5946 5946 5947 5947 5946 5945 5945 5946 5946 5944 5942 5939 5936 5934 5930 5925 5921 5914 5908 5903 5897 5892 5888 5882 5876 5869 5862 5855 5845 5835 5828 5820 5811 5803 5795 5787 5780 5773 5766
5937 5939 5940 5943 5944 5945 5946 5945 5945 5945 5945 5945 5944 5942 5940 5937 5935 5932 5928 5923 5919 5913 5907 5901 5895 5890 5884 5878 5872 5865 5858 5850 5841 5832 5824 5815 5807 5799 5792 5784 5777 5768 5762
5935 5937 5938 5940 5942 5944 5944 5944 5944 5944 5944 5944 5942 5940 5938 5935 5932 5929 5925 5921 5916 5911 5905 5898 5893 5886 5880 5875 5869 5862 5854 5846 5838 5829 5820 5811 5803 5795 5787 5780 5772 5763 5757
5933 5935 5936 5938 5940 5942 5943 5944 5943 5943 5943 5942 5941 5939 5936 5934 5930 5926 5922 5918 5912 5907 5902 5895 5890 5883 5877 5871 5865 5858 5850 5842 5834 5825 5816 5807 5799 5791 5784 5776 5767 5758 5751
5930 5932 5934 5935 5937 5940 5942 5941 5941 5941 5940 5940 5939 5936 5934 5931 5928 5923 5919 5915 5911 5905 5899 5893 5887 5880 5874 5868 5861 5855 5847 5839 5829 5820 5811 5802 5794 5785 5778 5771 5763 5753 5745
5926 5928 5931 5933 5935 5937 5939 5938 5937 5938 5938 5938 5936 5934 5932 5929 5926 5921 5916 5912 5908 5902 5897 5891 5885 5878 5871 5865 5858 5851 5844 5834 5826 5816 5807 5797 5789 5781 5773 5766 5758 5747 5739
5922 5925 5927 5930 5931 5934 5936 5934 5934 5935 5936 5935 5934 5932 5930 5927 5923 5919 5914 5910 5905 5900 5894 5889 5882 5875 5868 5862 5854 5847 5839 5831 5822 5812 5802 5793 5783 5774 5766 5758 5750 5741 5733
5918 5921 5924 5926 5928 5931 5932 5931 5931 5931 5932 5932 5931 5930 5927 5923 5919 5915 5911 5907 5902 5897 5892 5886 5879 5872 5865 5857 5850 5843 5836 5827 5817 5807 5797 5787 5778 5769 5759 5751 5744 5735 5726
5915 5917 5919 5922 5925 5927 5928 5928 5928 5928 5929 5928 5928 5926 5924 5920 5915 5912 5908 5903 5898 5893 5888 5882 5875 5868 5861 5855 5848 5840 5832 5823 5813 5803 5793 5783 5773 5763 5753 5745 5737 5728 5719
5910 5912 5914 5917 5921 5924 5924 5924 5925 5925 5925 5924 5923 5923 5921 5917 5912 5908 5904 5899 5895 5889 5882 5877 5872 5866 5859 5852 5845 5837 5828 5818 5808 5798 5787 5776 5765 5755 5747 5739 5730 5720 5711
5904 5907 5910 5913 5917 5919 5920 5921 5921 5921 5921 5920 5919 5918 5916 5913 5909 5904 5899 5895 5890 5886 5879 5871 5867 5862 5856 5849 5841 5833 5823 5813 5803 5793 5782 5770 5759 5748 5740 5731 5723 5714 5703
5900 5903 5906 5910 5912 5915 5916 5917 5917 5917 5917 5916 5915 5914 5909 5908 5903 5899 5895 5891 5885 5880 5876 5868 5862 5857 5852 5845 5837 5828 5819 5809 5799 5788 5775 5764 5754 5743 5734 5723 5713 5703 5692
5896 5899 5902 5905 5907 5909 5911 5912 5912 5912 5912 5911 5909 5908 5905 5901 5895 5893 5889 5885 5880 5876 5869 5863 5858 5853 5847 5840 5832 5823 5814 5804 5794 5783 5771 5759 5749 5739 5728 5717 5707 5695 5684
5892 5894 5897 5900 5903 5904 5905 5906 5907 5907 5906 5905 5904 5903 5899 5894 5890 5887 5883 5879 5874 5869 5862 5856 5851 5847 5842 5835 5827 5819 5809 5799 5789 5777 5765 5754 5743 5732 5722 5711 5701 5690 5679
5887 5890 5892 5894 5896 5898 5899 5899 5900 5901 5900 5899 5898 5894 5892 5891 5886 5880 5876 5873 5870 5863 5854 5848 5844 5840 5835 5828 5822 5814 5806 5795 5783 5772 5760 5749 5739 5727 5715 5703 5694 5685 5671
5880 5883 5886 5888 5890 5891 5892 5892 5893 5893 5893 5891 5889 5887 5885 5884 5875 5872 5869 5865 5861 5855 5848 5842 5838 5833 5828 5822 5815 5809 5802 5790 5779 5768 5757 5746 5734 5722 5709 5697 5687 5676 5662
5871 5874 5877 5878 5880 5882 5884 5885 5885 5885 5884 5883 5881 5879 5876 5874 5868 5865 5859 5858 5850 5848 5842 5836 5831 5827 5821 5816 5811 5803 5795 5784 5775 5764 5754 5741 5729 5715 5702 5690 5679 5669 5655
5860 5863 5865 5868 5869 5871 5873 5872 5874 5875 5874 5872 5871 5869 5868 5861 5859 5852 5850 5847 5844 5840 5836 5830 5824 5819 5815 5810 5804 5796 5788 5778 5769 5759 5749 5737 5723 5710 5697 5686 5674 5662 5649
5848 5851 5853 5855 5857 5858 5861 5863 5863 5864 5864 5862 5860 5857 5855 5851 5849 5845 5841 5841 5838 5831 5829 5824 5818 5813 5808 5803 5796 5789 5781 5772 5764 5754 5743 5731 5719 5706 5692 5680 5668 5657 5645
5836 5838 5840 5842 5843 5845 5848 5850 5851 5853 5853 5853 5848 5844 5843 5837 5835 5834 5833 5833 5829 5824 5821 5817 5811 5806 5800 5794 5788 5781 5775 5767 5758 5749 5738 5727 5714 5701 5687 5675 5665 5653 5640
5822 5824 5825 5826 5828 5830 5833 5835 5837 5839 5840 5840 5836 5834 5829 5828 5828 5827 5823 5823 5821 5816 5813 5809 5803 5798 5792 5785 5780 5775 5769 5761 5752 5743 5733 5721 5709 5694 5681 5670 5661 5649 5635
5806 5809 5810 5811 5813 5815 5817 5818 5820 5823 5826 5827 5825 5824 5820 5812 5817 5816 5812 5810 5811 5806 5804 5800 5795 5790 5782 5777 5773 5768 5762 5754 5745 5738 5728 5716 5704 5690 5678 5667 5657 5646 5634
5792 5795 5797 5799 5800 5802 5803 5804 5805 5808 5812 5814 5814 5810 5804 5804 5804 5803 5800 5800 5799 5797 5795 5791 5786 5783 5774 5769 5764 5760 5754 5748 5740 5732 5721 5709 5698 5686 5674 5664 5654 5644 5630
5779 5782 5784 5786 5787 5787 5790 5792 5793 5795 5798 5803 5805 5796 5791 5790 5792 5792 5789 5790 5789 5787 5784 5780 5777 5773 5765 5761 5756 5753 5748 5742 5733 5725 5715 5704 5693 5681 5670 5660 5651 5641 5627
5764 5767 5769 5771 5774 5775 5777 5778 5780 5783 5785 5789 5789 5783 5780 5780 5781 5780 5780 5778 5777 5777 5771 5769 5767 5761 5756 5752 5750 5745 5739 5733 5725 5718 5709 5698 5687 5675 5667 5658 5650 5639 5627
5750 5753 5754 5755 5758 5761 5762 5764 5766 5769 5770 5771 5770 5767 5763 5761 5766 5770 5768 5768 5767 5762 5760 5759 5756 5753 5748 5745 5741 5735 5730 5724 5718 5711 5702 5692 5682 5673 5665 5656 5648 5638 5627